Location: Los Angeles
(34.0542°N, 118.2411°W)
Time: 14:15:40
(UTC-08:00)

Daily predictions for brighter satellites

Satellite Brightness Start Highest point End
(mag) Time Altitude Azimuth Time Altitude Azimuth Time Altitude Azimuth
NOSS 2-1 (D) 3.3 17:07:25 10° SSW 17:11:13 89° ESE 17:15:17 10° NNE
Cosmos 921 Rocket 3.1 17:07:12 10° S 17:11:21 58° ESE 17:15:36 10° NNE
COSMO-SKYMED 1 3.8 17:08:10 10° NE 17:11:38 23° E 17:15:05 10° SSE
NOSS 2-1 (C) 3.3 17:08:04 10° SSW 17:11:53 88° ESE 17:15:59 10° NNE
Cosmos 2218 Rocket 4.3 17:05:58 10° N 17:12:12 77° W 17:18:20 10° S
Cosmos 1025 Rocket 4.2 17:10:04 10° SE 17:13:30 23° E 17:16:58 10° NE
Cosmos 2278 Rocket 3.5 17:08:46 10° SW 17:14:01 39° WNW 17:19:19 10° N
Okean 1 3.7 17:10:49 10° SSW 17:14:50 69° W 17:18:53 10° N
Genesis I 3.2 17:12:56 10° NNW 17:16:53 89° SSW 17:20:45 10° SSE
Cosmos 1346 Rocket 2.8 17:14:00 10° S 17:17:53 88° W 17:21:47 10° N
Cosmos 1536 Rocket 4.5 17:17:09 10° SSW 17:21:30 53° W 17:25:54 10° N
IDEFIX/ARIANE 42P 2.5 17:17:43 10° SSE 17:22:52 72° ENE 17:28:02 10° N
ASTRO F (AKARI) 4.3 17:23:59 10° NNE 17:27:05 56° ESE 17:30:15 10° S
Thor Agena Rocket 3.8 17:22:34 10° N 17:27:49 76° WNW 17:33:05 10° SSW
NOSS 2-1 (E) 3.7 17:26:49 10° SW 17:30:36 61° WNW 17:34:45 10° NNE
YAOGAN 1 2.5 17:27:03 10° SSE 17:31:22 81° ENE 17:35:42 10° N
Cosmos 1821 Rocket 4.4 17:27:46 10° N 17:33:24 38° ENE 17:39:01 10° SE
Cosmos 1833 Rocket 2.8 17:28:27 10° N 17:33:56 50° ENE 17:39:20 10° SE
Cosmos 1500 3.5 17:32:47 10° N 17:36:37 72° W 17:40:28 10° S
Cosmos 1743 2.8 17:35:44 10° N 17:39:31 51° E 17:43:14 10° SSE
Timation 2 Rocket 4.2 17:33:11 10° NNW 17:40:05 77° ENE 17:46:56 10° SSE
CZ-2C R/B 2.9 17:38:11 10° S 17:43:09 68° W 17:48:17 10° NNW
Cosmos 2082 Rocket 2.1 17:37:52 10° NNW 17:43:34 73° ENE 17:49:13 10° SSE
Meteor 1-28 Rocket 4.1 17:41:28 15° NE 17:43:59 28° E 17:47:16 10° SSE
COSMOS 2441 4.4 17:39:25 10° SSE 17:44:12 63° ENE 17:49:03 10° N
Meteor 2-21 Rocket 4.4 17:39:18 10° N 17:45:30 76° E 17:51:36 10° S
Meteor 2-16 Rocket 4.4 17:39:39 10° N 17:45:39 61° E 17:51:39 10° SSE
GRACE-2 3.8 17:45:58 10° S 17:48:44 89° WSW 17:51:32 10° N
GRACE-1 3.8 17:46:24 10° S 17:49:10 85° W 17:51:57 10° N
USA 234 4.0 17:44:10 10° NNE 17:50:24 48° NW 17:56:36 10° WSW
Cosmos 1484 Rocket 2.6 17:50:15 10° SSE 17:53:56 61° ENE 17:57:37 10° N
Nadezhda 3 Rocket 4.4 17:50:55 10° SSW 17:57:03 65° W 18:03:17 10° N
Delta 2 Rocket 3.1 17:53:29 10° W 17:57:04 69° N 17:58:58 28° E
SKYMED 2 3.5 17:55:27 10° NNE 17:59:48 89° E 18:04:08 10° SSW
Cosmos 2056 Rocket 3.6 17:59:10 10° SSW 18:04:32 86° WNW 18:09:53 10° NNE
Cosmos 407 Rocket 4.0 18:01:23 10° N 18:06:03 34° ENE 18:10:43 10° SE
Okean 2 3.4 18:02:33 10° S 18:06:38 59° E 18:09:33 18° NNE
Intercosmos 25 3.6 18:05:02 10° NNW 18:08:10 59° W 18:12:04 10° S
NOSS 3-4 (A) 3.9 18:01:22 10° NNW 18:08:19 54° NE 18:15:38 10° SE
NOSS 3-4 (C) 3.9 18:01:29 10° NNW 18:08:24 53° NE 18:15:43 10° SE
Cosmos 1892 Rocket 3.5 18:06:02 10° S 18:10:17 59° E 18:13:09 20° NNE
Tiangong 1 3.3 18:11:10 10° NW 18:12:41 15° N 18:12:41 15° N
Cosmos 2369 Rocket 2.6 18:11:52 10° S 18:17:07 41° ESE 18:18:41 34° ENE
CZ-4 R/B 4.5 18:14:40 10° SW 18:17:28 17° W 18:20:16 10° NW
Cosmos 1727 Rocket 4.1 18:12:41 10° SSE 18:18:38 49° E 18:23:21 16° NNE
NOAA 12 4.1 18:15:06 10° SSE 18:20:13 55° ENE 18:25:21 10° N
Cosmos 1726 Rocket 3.5 18:15:58 10° N 18:20:24 61° E 18:24:48 10° SSE
Meteor 2-9 Rocket 3.9 18:16:16 10° N 18:21:39 81° E 18:26:57 10° S
Meteor 1-15 Rocket 4.2 18:17:31 10° N 18:23:21 66° E 18:29:04 10° SSE
Meteor 1-23 Rocket 4.4 18:19:00 10° SSW 18:24:42 72° W 18:30:20 10° N
Meteor 2-4 Rocket 4.2 18:20:34 10° SSW 18:25:50 58° W 18:31:07 10° N
Cosmos 1340 2.5 18:24:33 10° S 18:28:19 85° E 18:28:48 66° NNE
OAO 2 Rocket 4.3 18:27:34 10° SW 18:32:07 32° SSE 18:32:47 30° SE
Orbus 7S? 4.2 18:36:28 10° SW 18:38:12 32° SW 18:38:12 32° SW
Cosmos 1606 Rocket 4.0 18:35:32 10° NNW 18:39:57 62° W 18:44:21 10° S
Cosmos 1934 Rocket 4.3 18:37:41 10° NNW 18:43:53 67° W 18:50:08 10° S
Cosmos 1943 Rocket 3.7 18:40:32 10° SSE 18:42:42 21° SSE 18:42:42 21° SSE
METEOR-M 4.0 18:42:06 10° SSE 18:47:26 87° ENE 18:52:48 10° NNW
Cosmos 1666 4.5 18:47:17 10° NNW 18:50:46 32° W 18:54:15 10° SSW
Cosmos 1452 Rocket 3.6 18:48:12 10° SSW 18:53:26 74° WNW 18:54:40 52° N
Cosmos 1339 Rocket 4.3 18:47:54 10° S 18:53:58 87° E 18:56:45 35° N
Cosmos 1190 Rocket 4.5 18:52:53 10° NNW 18:58:01 59° WSW 19:03:07 10° S
Cosmos 2058 Rocket 4.5 19:16:30 37° WSW 19:16:30 37° WSW 19:20:07 10° SSW
Gbstr 26 Del rocket 4.3 19:12:19 10° SW 19:20:30 85° NW 19:21:09 77° NNE
ATLAS 3B CENTAUR R/B 3.6 19:20:59 10° W 19:36:39 49° SSW 19:37:53 46° S
Cosmos 2369 Rocket 4.2 19:56:46 10° WSW 20:00:33 23° WNW 20:00:33 23° WNW
FALCON 9 R/B 4.0 20:09:37 10° W 20:18:20 39° W 20:18:20 39° W
